This is the latest recevied weather packets stored in our database for station/object LU4EGV-13. If no packets are shown the sender has not sent any weather packets the latest 10 day(s).
| Time | Temp. | Humidity | Pressure | Rain* | Wind** | Luminosity | Snow |
|---|---|---|---|---|---|---|---|
| 1777491045 | 22.78° C | 30% | 1008.5 hPa | 5.33 mm | - | - | - |
| 1777490439 | 22.78° C | 30% | 1008.2 hPa | 6.35 mm | - | - | - |
| 1777489833 | 22.78° C | 30% | 1008.4 hPa | 6.6 mm | - | - | - |
| 1777489228 | 22.78° C | 30% | 1008.1 hPa | 6.6 mm | - | - | - |
| 1777488631 | 23.33° C | 32% | 1008.2 hPa | 6.6 mm | - | - | - |
| 1777488015 | 22.78° C | 33% | 1008 hPa | 1.78 mm | - | - | - |
| 1777487408 | 22.78° C | 32% | 1007.9 hPa | 3.56 mm | - | - | - |
| 1777486802 | 22.78° C | 33% | 1007.9 hPa | 3.05 mm | - | - | - |
| 1777486196 | 22.78° C | 36% | 1007.8 hPa | 3.3 mm | - | - | - |
| 1777485601 | 22.78° C | 40% | 1007.7 hPa | 3.3 mm | - | - | - |
| 1777484983 | 22.78° C | 41% | 1007.5 hPa | 3.3 mm | - | - | - |
| 1777484378 | 22.78° C | 40% | 1007.4 hPa | 3.3 mm | - | - | - |
| 1777483772 | 22.22° C | 41% | 1007.7 hPa | 1.52 mm | - | - | - |
| 1777483165 | 22.78° C | 40% | 1007.6 hPa | 1.27 mm | - | - | - |
| 1777482560 | 22.78° C | 39% | 1007.5 hPa | 1.02 mm | - | - | - |
| 1777481953 | 22.22° C | 40% | 1007.4 hPa | 1.78 mm | - | - | - |
| 1777481346 | 22.22° C | 40% | 1007.4 hPa | 2.79 mm | - | - | - |
| 1777480753 | 22.22° C | 42% | 1007.5 hPa | 3.56 mm | - | - | - |
| 1777480136 | 21.11° C | 46% | 1007.6 hPa | 3.81 mm | - | - | - |
| 1777479531 | 21.67° C | 46% | 1007.9 hPa | 3.81 mm | - | - | - |
| 1777478922 | 21.11° C | 47% | 1008 hPa | 3.05 mm | - | - | - |
| 1777478315 | 21.11° C | 49% | 1008.1 hPa | 1.52 mm | - | - | - |
| 1777477709 | 20.56° C | 50% | 1008.3 hPa | 1.27 mm | - | - | - |
| 1777477103 | 20.56° C | 51% | 1008.2 hPa | 0.25 mm | - | - | - |
| 1777476498 | 20.56° C | 52% | 1008.3 hPa | 0 mm | - | - | - |
* Rain latest hour (hover to see other rain measurements)
** Current wind speed in m/s (hover to see current wind gust speed)